Weather in Veliky Bichkov

Ukraine / Zakarpattia District     47°58′18″N   24°00′02″E
temp.,
°C
wind,
m/s
gust,
m/s
humid.,
%
clouds,
%
prec.,
mm/h
press.,
hPa
HPBL,
m
7 august, sun
sun700:00+20ene22662 0.0 101631
03:00+16ene228349 0.0 101731
06:00+18ene228299 0.0 101763
09:00+21ne236733 0.0 1018487
12:00+26ne324918 0.2 10171230
15:00+27ne434421 0.4 10161585
18:00+24ne44548 0.1 1017671
21:00+17ene338864 1.3 101863
8 august, mon
mon800:00+14ene229110 0.1 102044
03:00+13ene229111 0.1 102032
06:00+13ene229154 0.1 102028
09:00+19ene126932 0.1 1019269
12:00+27w114510 0.6 1018926
15:00+31wnw023461 0.6 10162404
18:00+23ese346687 0.6 1017270
21:00+19e1190100 2.2 101916
9 august, tue
tue900:00+17ese2296100 1.8 102035
03:00+16ene1194100 2.3 102021
06:00+15ene1194100 0.6 101929
09:00+17ne1293100 2.8 1020172
12:00+22ne2268100 0.6 1020679
15:00+25ne325598 0.8 10181210
18:00+19ne358414 2.2 1018513
21:00+15ne2396100 7.6 102160
10 august, wed
wed1000:00+14ene239669 0.9 102175
03:00+14ne239487 1.1 102190
06:00+13ene2293100 0.1 102171
09:00+14ene2390100 0.1 1021151
12:00+18nne256238 0.0 1021831
15:00+21ne574750 0.0 10201242
18:00+21ne675030 0.0 10201198
21:00+14ne237646 0.1 102171
11 august, thu
thu1100:00+14ne2278100 0.1 102166
03:00+14ene127993 0.3 102148
06:00+13ne127987 0.1 102042
09:00+16ne247186 0.3 1021390
12:00+22ene464380 0.1 10201956
15:00+23ene464246 0.1 10201727
18:00+21ene45475 0.0 10201336
21:00+15ne227075 0.0 102030